Regional Weather Roundup
Issued by NWS

Home | Current Version | Previous Version | Text Only | Print | Product List | Glossary On
Versions: 1 2 3 4 5 6 7 8 9 10 11 12 13 14 15 16 17 18 19 20 21 22 23 24 25 26 27 28 29 30 31 32 33 34 35 36 37 38 39 40 41 42 43 44 45 46 47 48 49 50
000
ASUS46 KSTO 280915
RWRCA

NORTHERN AND CENTRAL CA REGIONAL WEATHER ROUNDUP
NATIONAL WEATHER SERVICE SACRAMENTO CA
200 AM PDT SUN MAY 28 2017

NOTE: FAIR INDICATES FEW OR NO CLOUDS BELOW 12,000 FEET WITH NO
SIGNIFICANT WEATHER AND/OR OBSTRUCTIONS TO VISIBILITY.

CAZ001-003-281000-
NORTHWEST AREA

CITY           SKY/WX    TMP DP  RH WIND       PRES   REMARKS
CRESCENT CITY  CLOUDY    51  50  96 S6        30.15S
UKIAH          CLEAR     54  49  83 CALM      30.08F
$$

CAZ006-505>513-281000-
BAY AREA

CITY           SKY/WX    TMP DP  RH WIND       PRES   REMARKS
SANTA ROSA     CLOUDY    53  51  93 CALM      30.07F
SAN RAFAEL     N/A       53  MM  MM MISG
NAPA           CLEAR     54  50  86 W5        30.08F
CONCORD        CLEAR     56  50  80 S8        30.07F
OAKLAND CITY   N/A      MM  MM  MM MISG
OAKLAND        MOCLDY    57  51  80 W15       30.11F
SAN FRAN CITY  N/A       54  MM  84 MISG
SAN FRAN ARPT  CLOUDY    55  49  80 W15       30.10F
LIVERMORE      CLOUDY    55  50  83 W6        30.09S
HAYWARD        CLOUDY    57  48  72 W9        30.10F
REDWOOD CITY   N/A       54  MM  85 MISG
MOFFETT ARPT   CLOUDY    56  51  84 NW5       30.11S
SAN JOSE ARPT  CLOUDY    57  52  83 NW9       30.10S
$$
CAZ034-037-514>518-281000-
CENTRAL COAST

CITY           SKY/WX    TMP DP  RH WIND       PRES   REMARKS
WATSONVILLE    CLEAR     50  50 100 NW5       30.09F
SALINAS        CLEAR     54  50  86 NW6       30.08F
MONTEREY       CLOUDY    54  51  90 S6        30.09F
SAN LUIS OBISP PTCLDY    54  49  83 NE3       30.05F
SANTA MARIA    CLEAR     50  50 100 W3        30.07S
$$
CAZ015-016-281000-
NORTHERN SACRAMENTO VALLEY

CITY           SKY/WX    TMP DP  RH WIND       PRES   REMARKS
REDDING        CLEAR     64  56  75 CALM      30.03S
RED BLUFF      CLEAR     62  56  80 NW6       30.04R
OROVILLE       CLEAR     66  55  67 E5        30.03S
$$
CAZ016>018-281000-
SOUTHERN SACRAMENTO VALLEY

CITY           SKY/WX    TMP DP  RH WIND       PRES   REMARKS
AUBURN         CLEAR     61  55  82 E5        30.06S
BEALE AFB      CLEAR     58  53  83 S5        30.01S
LINCOLN        FAIR      61  50  67 S8        30.02S
MARYSVILLE     CLEAR     62  53  72 SE8       30.03R
SAC INTL ARPT  CLEAR     57  51  80 SE9       30.02S
MATHER AIRPORT NOT AVBL
DOWNTOWN SAC   N/A      MM  MM  MM MISG
SAC EXEC ARPT    N/A    N/A N/A N/A MISG        N/A
VACAVILLE      CLEAR     59  51  75 SW8       30.02S
TRAVIS AFB     CLEAR     54  51  88 SW22G28   30.01S
$$
CAZ019>021-281000-
SAN JOAQUIN VALLEY

CITY           SKY/WX    TMP DP  RH WIND       PRES   REMARKS
STOCKTON       CLEAR     57  50  77 NW8       30.05S
MODESTO        CLEAR     61  53  75 N8        30.03S
MERCED         CLEAR     61  51  70 NW7       30.02F
LEMOORE        CLEAR     62  48  60 NW9       30.02F
FRESNO         CLEAR     65  54  67 NW10      30.02S
HANFORD        CLEAR     65  56  72 NW8       30.02S
PORTERVILLE      N/A     61  53  75 S5        30.03S
BAKERSFIELD    CLEAR     70  50  49 E3        30.02S
$$
CAZ011-012-071-281000-
NORTHERN MOUNTAINS

CITY           SKY/WX    TMP DP  RH WIND       PRES   REMARKS
YREKA          CLEAR     53  43  68 CALM      30.10R
MOUNT SHASTA   CLEAR     50  43  77 CALM      30.14S
ALTURAS        CLEAR     43  35  73 CALM      30.17S
$$
CAZ011-012-071-281000-
SIERRA NEVADA MTNS

CITY           SKY/WX    TMP DP  RH WIND       PRES   REMARKS
BLUE CANYON    CLEAR     63  22  20 CALM      30.21S
TRUCKEE        CLEAR     34  32  93 CALM      30.27S
TAHOE VLY ARPT CLEAR     39  30  70 S5        30.26S
MAMMOTH LAKES  FAIR      43  21  41 W7        30.30S
$$



USA.gov is the U.S. government's official web portal to all federal, state and local government web resources and services.